Retour au catalogue

STARLINK-32955

ActifCommunicationsVLEO
NORAD 63117·PAYLOAD·🇺🇸 United States

Lancé Feb 27, 2025 depuis Cape Canaveral Space Force Station

Loading…

Prochains Passages (prochaines 24 heures)

TLE

FraisSource: CelesTrak SupGP

Époque: Sep 14, 2026, 18:08 UTC

1 63117C 25039P   26257.75604167  .06654900  00000+0  44086-2 0  2575
2 63117  42.9731 319.9355 0021685  53.5122 205.8898 16.12389839    12

Suivez STARLINK-32955 en temps réel avec AllMySat

Download on the App Store